EW0600 Weather Reports


Display with metric or nautical units.
time (UTC)temp
F
wind
direction
speed
MPH
gust
MPH
rain 1hr
in
rain 24hr
in
rain mn
in
humidity
%
barometer
mb
20260510013106 53 308 10.0 13.0 0.00 0.00 0.00 41 1009.6
20260510011505 55 320 15.0 19.0 0.00 0.00 0.00 39 1009.2
20260510010752 55 322 12.0 20.0 0.00 0.00 0.00 39 1009.1
20260510005734 56 326 14.0 20.0 0.00 0.00 0.00 37 1009.0
20260510004728 57 321 13.0 23.0 0.00 0.00 0.00 38 1008.8
20260510004502 56 330 13.0 20.0 0.00 0.00 0.00 38 1008.7
20260510003103 57 322 17.0 24.0 0.00 0.00 0.00 36 1008.6
20260510002555 57 343 12.0 20.0 0.00 0.00 0.00 37 1008.5
20260510001537 58 336 15.0 21.0 0.00 0.00 0.00 35 1008.5
20260510001506 57 328 17.0 22.0 0.00 0.00 0.00 34 1008.4
20260510000104 57 334 10.0 22.0 0.00 0.00 0.00 36 1008.3
20260509234503 58 318 11.0 26.0 0.00 0.00 0.00 36 1008.1
20260509234210 58 311 15.0 25.0 0.00 0.00 0.00 35 1008.0
20260509233216 58 335 15.0 24.0 0.00 0.00 0.00 37 1007.9
20260509233102 58 330 16.0 25.0 0.00 0.00 0.00 36 1007.9
20260509232203 58 301 16.0 24.0 0.00 0.00 0.00 36 1007.8
20260509231503 58 301 16.0 24.0 0.00 0.00 0.00 37 1007.8
20260509231226 58 322 16.0 25.0 0.00 0.00 0.00 35 1007.8
20260509230103 58 325 14.0 25.0 0.00 0.00 0.00 34 1007.6
20260509224502 58 323 17.0 26.0 0.00 0.00 0.00 33 1007.4
20260509223927 59 314 16.0 24.0 0.00 0.00 0.00 33 1007.2
20260509223104 58 325 16.0 24.0 0.00 0.00 0.00 33 1007.1
20260509222900 59 336 16.0 26.0 0.00 0.00 0.00 33 1007.1
20260509221913 59 341 14.0 26.0 0.00 0.00 0.00 34 1007.1
20260509221503 59 326 16.0 27.0 0.00 0.00 0.00 37 1007.1
20260509220849 59 345 14.0 24.0 0.00 0.00 0.00 34 1007.0
20260509220105 59 306 12.0 25.0 0.00 0.00 0.00 37 1006.9
20260509215854 59 328 13.0 24.0 0.00 0.00 0.00 38 1006.9
20260509214848 58 338 16.0 23.0 0.00 0.00 0.00 36 1007.0
20260509214503 58 319 20.0 24.0 0.00 0.00 0.00 37 1007.0
20260509213846 59 323 13.0 23.0 0.00 0.00 0.00 35 1006.9
20260509213104 59 282 16.0 24.0 0.00 0.00 0.00 35 1006.8
20260509211717 58 321 19.0 28.0 0.00 0.00 0.00 35 1006.7
20260509211504 58 318 17.0 29.0 0.00 0.00 0.00 35 1006.8
20260509210729 59 334 16.0 28.0 0.00 0.00 0.00 34 1006.7
20260509210109 58 322 14.0 23.0 0.00 0.00 0.00 36 1006.7
20260509205652 58 33 13.0 22.0 0.00 0.00 0.00 36 1006.5
20260509204702 58 18 17.0 26.0 0.00 0.00 0.00 35 1006.6
20260509204502 58 326 19.0 27.0 0.00 0.00 0.00 35 1006.7
20260509203658 59 338 16.0 26.0 0.00 0.00 0.00 36 1006.4
20260509203102 57 333 15.0 26.0 0.00 0.00 0.00 36 1006.5
20260509202624 58 311 16.0 23.0 0.00 0.00 0.00 36 1006.4
20260509201611 58 342 16.0 26.0 0.00 0.00 0.00 35 1006.4
20260509201503 58 347 14.0 25.0 0.00 0.00 0.00 36 1006.4
20260509200544 58 5 15.0 26.0 0.00 0.00 0.00 38 1006.2
20260509195530 58 309 15.0 25.0 0.00 0.00 0.00 38 1006.2
20260509194531 57 293 17.0 28.0 0.00 0.00 0.00 36 1006.1
20260509194504 57 311 15.0 29.0 0.00 0.00 0.00 36 1006.2
20260509193455 58 332 15.0 28.0 0.00 0.00 0.00 38 1006.0
20260509193103 58 316 15.0 25.0 0.00 0.00 0.00 39 1006.1
20260509192455 57 322 16.0 28.0 0.00 0.00 0.00 39 1005.9
20260509191502 57 57 15.0 28.0 0.00 0.00 0.00 39 1005.9
20260509185231 57 300 18.0 27.0 0.00 0.00 0.00 41 1005.7
20260509184502 56 326 21.0 28.0 0.00 0.00 0.00 41 1005.7
20260509184213 57 320 21.0 27.0 0.00 0.00 0.00 41 1005.7
20260509183137 56 325 16.0 32.0 0.00 0.00 0.00 46 1005.5
20260509183103 56 323 15.0 27.0 0.00 0.00 0.00 44 1005.6
20260509182132 56 333 20.0 32.0 0.00 0.00 0.00 40 1005.6
20260509181502 56 335 23.0 33.0 0.00 0.00 0.00 43 1005.4
20260509181124 57 310 18.0 28.0 0.00 0.00 0.00 43 1005.3
20260509180104 56 312 17.0 28.0 0.00 0.00 0.00 41 1005.3
20260509175040 57 327 18.0 28.0 0.00 0.00 0.00 42 1005.2
20260509174507 56 345 16.0 28.0 0.00 0.00 0.00 44 1005.2
20260509174037 56 321 19.0 31.0 0.00 0.00 0.00 42 1005.1
20260509173120 56 328 19.0 32.0 0.00 0.00 0.00 42 1005.2
20260509173031 56 316 21.0 31.0 0.00 0.00 0.00 42 1005.1
20260509172049 57 320 22.0 30.0 0.00 0.00 0.00 43 1005.0
20260509171505 56 323 23.0 32.0 0.00 0.00 0.00 41 1004.9
20260509171036 56 309 22.0 32.0 0.00 0.00 0.00 44 1004.9
20260509170124 56 302 20.0 33.0 0.00 0.00 0.00 45 1004.8
20260509164904 56 36 18.0 27.0 0.00 0.00 0.00 46 1004.8
20260509164503 56 321 18.0 28.0 0.00 0.00 0.00 44 1004.8
20260509163851 56 328 16.0 26.0 0.00 0.00 0.00 43 1004.8
20260509163102 56 45 13.0 27.0 0.00 0.00 0.00 46 1004.8
20260509161735 56 344 18.0 30.0 0.00 0.00 0.00 45 1004.6
20260509161503 55 19 16.0 31.0 0.00 0.00 0.00 44 1004.5
20260509160709 56 330 20.0 31.0 0.00 0.00 0.00 44 1004.3
20260509155728 55 333 21.0 31.0 0.00 0.00 0.00 46 1004.4
20260509154747 56 313 15.0 25.0 0.00 0.00 0.00 49 1004.3
20260509154503 55 342 14.0 19.0 0.00 0.00 0.00 53 1004.3
20260509153712 55 313 14.0 24.0 0.00 0.00 0.00 54 1004.1
20260509153102 54 312 18.0 25.0 0.00 0.00 0.00 52 1004.1
20260509151539 53 332 17.0 27.0 0.00 0.00 0.00 56 1003.9
20260509151502 53 330 17.0 28.0 0.00 0.00 0.00 57 1004.0
20260509150510 53 336 13.0 23.0 0.00 0.00 0.00 59 1003.8
20260509145521 53 330 15.0 26.0 0.00 0.00 0.00 61 1003.7
20260509144532 53 25 17.0 26.0 0.00 0.00 0.00 59 1003.6
20260509144502 52 332 17.0 27.0 0.00 0.00 0.00 59 1003.7
20260509143107 51 330 18.0 24.0 0.00 0.00 0.00 66 1003.4
20260509142346 51 327 15.0 22.0 0.00 0.00 0.00 70 1003.2
20260509141503 51 356 15.0 24.0 0.00 0.00 0.00 71 1003.2
20260509141359 51 333 16.0 23.0 0.00 0.00 0.00 70 1003.0
20260509140359 51 332 18.0 23.0 0.00 0.00 0.00 71 1002.8
20260509140107 51 331 20.0 24.0 0.00 0.00 0.00 71 1002.8
20260509135410 52 342 19.0 31.0 0.00 0.00 0.00 69 1002.7
20260509134502 52 330 18.0 32.0 0.00 0.00 0.00 71 1002.6
20260509134403 52 341 17.0 31.0 0.00 0.00 0.00 72 1002.6
20260509133425 52 349 14.0 24.0 0.00 0.00 0.00 73 1002.4
20260509133105 51 341 13.0 25.0 0.00 0.00 0.00 74 1002.5
20260509132432 52 7 16.0 23.0 0.00 0.00 0.00 73 1002.3
20260509131502 52 324 15.0 25.0 0.00 0.00 0.00 77 1002.2
20260509131430 52 311 18.0 24.0 0.00 0.00 0.00 77 1002.1
20260509130419 52 328 16.0 24.0 0.00 0.00 0.00 75 1001.9
20260509130128 51 334 15.0 22.0 0.00 0.00 0.00 76 1001.9
20260509125424 52 308 16.0 23.0 0.00 0.00 0.00 76 1001.8
20260509124502 51 326 21.0 25.0 0.00 0.00 0.00 76 1001.6
20260509124426 52 323 15.0 23.0 0.00 0.00 0.00 76 1001.5
20260509123405 52 337 13.0 26.0 0.00 0.00 0.00 77 1001.3
20260509123126 52 321 14.0 26.0 0.00 0.00 0.00 77 1001.4
20260509122414 52 309 18.0 26.0 0.00 0.00 0.00 76 1001.2
20260509121502 52 295 16.0 25.0 0.00 0.00 0.00 76 1001.1
20260509121405 52 326 16.0 24.0 0.00 0.00 0.00 77 1001.0
20260509115255 52 281 10.0 18.0 0.00 0.00 0.00 75 1000.7
20260509114503 51 283 9.0 13.0 0.00 0.00 0.00 73 1000.7
20260509114253 51 282 5.0 10.0 0.00 0.00 0.00 73 1000.7
20260509113228 51 273 5.0 7.0 0.00 0.00 0.00 73 1000.5
20260509113136 51 275 6.0 7.0 0.00 0.00 0.00 72 1000.5
20260509112219 51 276 4.0 5.0 0.00 0.00 0.00 73 1000.3
20260509111503 51 289 4.0 6.0 0.00 0.00 0.00 73 1000.2
20260509111200 51 292 4.0 5.0 0.00 0.00 0.00 73 1000.1
20260509110123 51 289 4.0 5.0 0.00 0.00 0.00 73 1000.0
20260509110106 51 289 4.0 6.0 0.00 0.00 0.00 72 1000.1
20260509105054 51 286 5.0 10.0 0.00 0.00 0.00 72 1000.0
20260509104503 50 277 5.0 11.0 0.00 0.00 0.00 72 999.9
20260509104033 51 322 4.0 10.0 0.00 0.00 0.00 72 1000.0
20260509103109 49 214 3.0 7.0 0.00 0.00 0.00 68 999.6
20260509103025 50 226 4.0 6.0 0.00 0.00 0.00 68 999.6
20260509102023 50 212 1.0 3.0 0.00 0.00 0.00 66 999.6
20260509101509 50 354 1.0 3.0 0.00 0.00 0.00 66 999.8
20260509101009 51 354 0.0 0.0 0.00 0.00 0.00 66 999.5
20260509100021 51 355 0.0 4.0 0.00 0.00 0.00 65 999.8
20260509095041 50 336 2.0 4.0 0.00 0.00 0.00 67 1000.1
20260509094610 49 333 3.0 4.0 0.00 0.00 0.00 66 1000.2
20260509094047 50 325 1.0 3.0 0.00 0.00 0.00 64 1000.2
20260509093033 49 328 0.0 2.0 0.00 0.00 0.00 63 999.9
20260509093003 49 328 1.0 3.0 0.00 0.00 0.00 64 1000.0
20260509092005 49 328 2.0 3.0 0.00 0.00 0.00 65 999.8
20260509091602 48 328 2.0 5.0 0.00 0.00 0.00 64 1000.0
20260509090937 49 328 2.0 4.0 0.00 0.00 0.00 63 999.8
20260509090001 48 323 2.0 7.0 0.00 0.00 0.00 62 999.7
20260509085925 49 323 3.0 6.0 0.00 0.00 0.00 62 999.6
20260509084619 49 304 7.0 12.0 0.00 0.00 0.00 60 999.6
20260509083754 50 305 7.0 13.0 0.00 0.00 0.00 57 999.5
20260509083002 49 314 10.0 14.0 0.00 0.00 0.00 57 999.5
20260509082737 50 278 5.0 7.0 0.00 0.00 0.00 56 998.9
20260509081749 49 238 3.0 7.0 0.00 0.00 0.00 56 998.6
20260509081602 49 231 4.0 6.0 0.00 0.00 0.00 57 998.6
20260509080717 49 250 2.0 3.0 0.00 0.00 0.00 58 998.6
20260509075701 49 236 1.0 3.0 0.00 0.00 0.00 58 998.6
20260509074712 50 229 2.0 2.0 0.00 0.00 0.00 57 998.5
20260509074603 49 229 3.0 4.0 0.00 0.00 0.00 57 998.5
20260509073712 50 217 0.0 2.0 0.00 0.00 0.00 57 998.4
20260509073102 49 217 0.0 1.0 0.00 0.00 0.00 56 998.4
20260509072700 50 161 0.0 2.0 0.00 0.00 0.00 56 998.4
20260509071657 50 198 1.0 2.0 0.00 0.00 0.00 56 998.5
20260509071503 49 207 2.0 2.0 0.00 0.00 0.00 56 998.6
20260509070645 50 219 0.0 1.0 0.00 0.00 0.00 55 998.7
20260509070054 49 160 0.0 1.0 0.00 0.00 0.00 54 998.8
20260509065700 50 161 0.0 0.0 0.00 0.00 0.00 54 998.7
20260509064637 50 146 0.0 1.0 0.00 0.00 0.00 54 998.9
20260509064603 49 146 0.0 2.0 0.00 0.00 0.00 54 998.9
20260509063647 49 210 1.0 2.0 0.00 0.00 0.00 56 999.0
20260509063002 49 218 2.0 4.0 0.00 0.00 0.00 54 999.2
20260509062708 51 224 2.0 3.0 0.00 0.00 0.00 52 999.2
20260509061650 52 182 2.0 4.0 0.00 0.00 0.00 52 999.1
20260509061608 51 193 3.0 5.0 0.00 0.00 0.00 51 999.2
20260509060627 52 207 2.0 4.0 0.00 0.00 0.00 51 999.4
20260509060004 52 195 2.0 4.0 0.00 0.00 0.00 50 999.3
20260509055634 52 197 1.0 2.0 0.00 0.00 0.00 49 999.3
20260509054625 52 157 1.0 2.0 0.00 0.00 0.00 48 999.5
20260509054613 52 155 1.0 3.0 0.00 0.00 0.00 48 999.6
20260509053555 53 274 0.0 1.0 0.00 0.00 0.00 48 999.7
20260509053003 52 274 1.0 2.0 0.00 0.00 0.00 48 999.8
20260509052531 53 274 0.0 1.0 0.00 0.00 0.00 47 999.8
20260509051609 53 286 0.0 2.0 0.00 0.00 0.00 47 999.7
20260509051554 54 286 0.0 0.0 0.00 0.00 0.00 47 999.7
20260509050005 55 286 1.0 4.0 0.00 0.00 0.00 45 1000.0
20260509045355 56 284 3.0 4.0 0.00 0.00 0.00 44 1000.0
20260509044617 56 295 4.0 5.0 0.00 0.00 0.00 43 1000.1
20260509044415 56 295 3.0 5.0 0.00 0.00 0.00 44 1000.0
20260509043427 56 292 4.0 8.0 0.00 0.00 0.00 45 1000.2
20260509043003 56 301 5.0 9.0 0.00 0.00 0.00 43 1000.3
20260509042411 57 309 6.0 9.0 0.00 0.00 0.00 43 1000.3
20260509041603 57 288 7.0 10.0 0.00 0.00 0.00 42 1000.3
20260509041342 58 303 7.0 9.0 0.00 0.00 0.00 42 1000.3
20260509040308 58 309 7.0 11.0 0.00 0.00 0.00 41 1000.3
20260509040003 58 316 7.0 11.0 0.00 0.00 0.00 41 1000.3
20260509035306 59 334 8.0 11.0 0.00 0.00 0.00 40 1000.3
20260509034604 58 312 8.0 12.0 0.00 0.00 0.00 40 1000.2
20260509034304 59 319 8.0 13.0 0.00 0.00 0.00 40 1000.3
20260509033322 59 307 10.0 13.0 0.00 0.00 0.00 40 1000.3
20260509033003 59 315 11.0 14.0 0.00 0.00 0.00 40 1000.2
20260509032324 60 310 9.0 14.0 0.00 0.00 0.00 41 1000.1
20260509031611 60 317 10.0 14.0 0.00 0.00 0.00 40 1000.0
20260509031339 60 321 10.0 14.0 0.00 0.00 0.00 40 999.9
20260509030304 61 321 11.0 18.0 0.00 0.00 0.00 39 999.8
20260509030005 61 323 12.0 19.0 0.00 0.00 0.00 39 999.8
20260509025322 62 321 12.0 18.0 0.00 0.00 0.00 38 999.8
20260509024602 62 304 11.0 19.0 0.00 0.00 0.00 38 999.8
20260509024251 62 311 12.0 18.0 0.00 0.00 0.00 37 999.6
20260509023302 63 309 11.0 17.0 0.00 0.00 0.00 37 999.6
20260509023004 62 308 13.0 18.0 0.00 0.00 0.00 37 999.7
20260509021603 63 309 13.0 23.0 0.00 0.00 0.00 36 999.4
20260509021204 64 311 12.0 22.0 0.00 0.00 0.00 36 999.3
20260509020159 64 307 12.0 19.0 0.00 0.00 0.00 35 999.1
20260509020003 64 302 14.0 20.0 0.00 0.00 0.00 35 999.1
20260509015155 64 308 12.0 19.0 0.00 0.00 0.00 34 998.9
20260509014602 64 301 12.0 16.0 0.00 0.00 0.00 33 998.9